Location: Brad
(46.1333°N, 22.7833°E)
Time: 11:19:50
(UTC+00:00)

In-Cosmos 22 Rocket - Pass Details

Date: 03 February 2023
Orbit: 789 x 888 km, 81.2° (Epoch: 20 March)

Event Time Altitude Azimuth Distance (km) Brightness Sun altitude
Rises 16:47:29 0° 180° (S) 3,462 7.5 -12.6°
Reaches altitude 10° 16:49:55 10° 178° (S) 2,535 6.8 -13.0°
Maximum altitude 16:55:39 68° 97° (E) 958 4.2 -14.0°
Drops below altitude 10° 17:01:27 10° 16° (NNE) 2,562 6.5 -15.0°
Sets 17:03:55 0° 14° (NNE) 3,501 7.2 -15.4°
